User: anonymous
Location: Vancouver
(49.2500°N, 123.1330°W)
Time: 12:36:31
(UTC-07:00)
Language:

ERS-2 - Orbit

View from above orbital plane
View from above orbital plane
View from above satellite
View from above satellite

Ground track
Ground track

The orbit data is extracted from the following two-line orbital elements,

1 23560U 95021A   14211.12445872  .00002160  00000-0  13577-3 0   597
2 23560 098.5626 056.4759 0003308 254.0077 259.5071 15.10540934 15747
Epoch (UTC): 30 July 2014 02:59:13
Eccentricity: 0.0003308
inclination: 98.5626°
perigee height: 532 km
apogee height: 537 km
right ascension of ascending node: 56.4759°
argument of perigee: 254.0077°
revolutions per day: 15.10540934
mean anomaly at epoch: 259.5071°
orbit number at epoch: 1574

The dashed part of the orbit path shows where the satellite is in the earth's shadow,  

DLR